sat.trackr.live / text

‹ back to catalog

ETV-A1

NORAD 51060 · 2022-002CE

PAYLOAD ACTIVE UNKNOWN

§ Identity

Operator
Country
UK
Launch date
2022-01-13
Launch site
AFETR
Launch vehicle
Mass (kg)
RCS (m²)

External: N2YO · Heavens-Above · Gunter

§ Orbital elements

Epoch: 2026-05-25T03:33:04.843008Z

Period
93.50 min
Inclination
97.2890°
Eccentricity
0.0006669
Mean motion
15.40130017 rev/d
Perigee alt
441.2 km
Apogee alt
450.3 km
Semi-major
6,823.9 km
B*
2.7938e-4
RAAN
211.5273°
Arg perigee
77.0295°
Mean anomaly
283.1696°
Rev number
24,229

§ Raw data

ETV-A11 51060U 22002CE  26145.14797272  .00011122  00000+0  27938-3 0  99932 51060  97.2890 211.5273 0006669  77.0295 283.1696 15.40130017242293

JSON: /api/v1/satellites/51060 · /tle

For live sub-satellite position, see the globe view (requires WebGL).

§ Visibility from observer

Set your observer location to see the next 7 days of passes ≥ 10°. The values pass through the URL so the page stays shareable.

No JS? Fill the form by hand. The geolocation button needs JavaScript.

§ Radio — SatNOGS DB

ModeDescriptionDownlinkUplink
BPSK S-band telemetry 2.225 GHz
BPSK S-band telemetry 2.211 GHz
BPSK UHF Unknown 401.050 MHz

3 transmitters · refreshed weekly from db.satnogs.org